Tracking 19854 objects as of 23-Sep-2019
HD Live streaming from Space Station
objects crossing your sky now

NEE 02 KRYSAOR

Track NEE 02 KRYSAOR now!
10-day predictions
NEE 02 KRYSAOR is classified as:


NORAD ID: 39441
Int'l Code: 2013-066AB
Perigee: 594.5 km
Apogee: 710.6 km
Inclination: 97.6 °
Period: 97.6 minutes
Semi major axis: 7023 km
RCS: Unknown
Launch date: November 21, 2013
Source: Ecuador (ECU)
Launch site: Orenburg, Russia (OREN)

Uplink (MHz):
Downlink (MHz): 980.000(bandwidth 25MHz)
Beacon (MHz):
Mode:
Call sign:
Status:

aabbcc
Your satellite tracking list
Your tracking list is empty




NASA's NSSDC Master Catalog

Two Line Element Set (TLE):
1 39441U 13066AB  19264.97654781  .00000086  00000-0  19227-4 0  9995
2 39441  97.6128 255.5184 0082652 142.0071 218.7009 14.74929312313842
Source of the keplerian elements: AFSPC